Location: Harlow
(51.7833°N, 0.1667°E)
Time: 04:10:29
(UTC+00:00)

Daily predictions for brighter satellites

Satellite Brightness Start Highest point End
(mag) Time Altitude Azimuth Time Altitude Azimuth Time Altitude Azimuth
Cosmos 2228 Rocket 3.9 00:05:20 27° SE 00:07:11 40° E 00:11:24 10° NNE
Meteor 1-12 Rocket 4.4 00:02:15 10° N 00:08:09 75° ENE 00:11:47 25° SSE
Cosmos 2082 Rocket 3.2 00:07:01 23° SSE 00:09:30 33° ESE 00:14:32 10° NE
Helios 1A Rocket 4.3 00:07:43 16° ESE 00:10:12 31° ENE 00:13:38 10° N
Cosmos 1833 Rocket 2.6 00:08:10 26° SSW 00:11:27 88° WNW 00:17:07 10° NNE
BREEZE-M DEB (TANK) 3.8 00:13:11 31° SSE 00:13:11 31° SSE 00:17:31 10° ESE
Cosmos 724 4.5 00:12:03 29° S 00:14:54 56° ESE 00:20:36 10° NE
Cosmos 1908 3.6 00:11:55 10° NNW 00:15:20 43° W 00:16:07 36° SW
PSLV R/B 4.0 00:20:02 10° N 00:24:33 59° WNW 00:26:44 28° SW
USA 267 3.2 00:18:39 10° ENE 00:25:11 68° SE 00:30:21 17° SW
Cosmos 1842 4.5 00:23:50 22° WSW 00:25:21 31° WNW 00:28:41 10° N
Cosmos 1140 Rocket 3.5 00:22:27 27° SSW 00:25:22 78° WNW 00:30:38 10° NNE
Cosmos 1441 Rocket 3.4 00:22:46 10° NNW 00:26:16 49° W 00:27:04 40° SW
NOSS 3-3 (A) 4.2 00:21:40 13° WSW 00:26:47 69° NW 00:33:31 10° NE
Cosmos 1707 3.6 00:26:20 27° WSW 00:27:41 37° WNW 00:31:08 10° N
Cosmos 1674 4.2 00:26:29 19° WSW 00:27:54 25° WNW 00:30:51 10° NNW
Cosmos 1455 4.2 00:26:08 10° NNE 00:28:46 20° ENE 00:31:18 10° ESE
Cosmos 1869 Rocket 4.2 00:25:32 10° NNW 00:29:39 43° W 00:31:14 30° SW
Cosmos 1733 Rocket 3.0 00:25:32 10° N 00:29:53 78° ENE 00:31:54 31° SSE
Iridium 51 4.5 00:28:15 36° S 00:30:00 88° WNW 00:34:28 10° N
Resurs 1-4 Rocket 4.4 00:29:03 10° NE 00:31:40 14° E 00:34:16 10° ESE
GP-B 3.2 00:28:47 10° N 00:33:10 63° W 00:35:02 32° SSW
Cosmos 1400 Rocket 2.9 00:32:16 37° S 00:33:43 68° E 00:37:42 10° NNE
H-2A R/B 2.5 00:32:26 10° N 00:36:49 56° WNW 00:38:59 27° SW
Cosmos 381 Rocket 4.5 00:30:50 10° NNW 00:37:18 87° WSW 00:41:55 20° SSE
Cosmos 2278 4.4 00:34:06 10° NNW 00:39:43 54° NE 00:45:19 10° SE
NOSS 3-4 (A) 3.9 00:34:39 10° NW 00:41:18 58° SW 00:47:10 18° SSE
NOSS 3-4 (C) 3.9 00:34:45 10° NW 00:41:24 58° SW 00:47:19 18° SSE
Cosmos 1346 Rocket 2.8 00:39:35 10° N 00:43:28 71° ENE 00:45:17 30° SSE
Cosmos 468 Rocket 4.0 00:40:59 10° NNW 00:46:19 86° WSW 00:49:48 22° SSE
Cosmos 2315 Rocket 4.4 00:40:47 10° NNW 00:46:52 53° W 00:50:26 25° SSW
Cosmos 2251 Rocket 3.5 00:44:26 27° SSW 00:47:21 81° WNW 00:52:41 10° NNE
Cosmos 407 Rocket 3.6 00:44:27 26° SW 00:47:29 75° WNW 00:52:45 10° NNE
Cosmos 1954 Rocket 4.4 00:48:42 27° S 00:51:29 56° ESE 00:56:41 10° NNE
Okean 2 4.5 00:49:49 21° SE 00:51:47 35° E 00:55:25 10° NNE
Cosmos 2333 Rocket 4.1 00:47:11 10° NNW 00:52:14 31° NE 00:57:17 10° ESE
Cosmos 1190 Rocket 4.0 00:51:10 28° SSW 00:53:59 75° ESE 00:59:18 10° NNE
Meteor 1-4 Rocket 4.1 00:53:08 17° ESE 00:54:09 20° E 00:56:24 10° NE
CZ-2C R/B 4.2 00:49:53 10° ESE 00:54:22 31° ENE 00:58:53 10° N
Cosmos 1763 Rocket 3.8 00:50:29 10° NNW 00:55:40 53° WSW 00:58:19 27° S
Cosmos 2285 Rocket 4.3 00:51:49 20° SW 00:56:14 62° WNW 01:02:34 10° NNE
Cosmos 2322 Rocket 3.5 00:52:00 10° NNW 00:57:20 40° NE 01:02:39 10° ESE
Cosmos 1300 3.0 00:54:58 10° NNW 00:58:24 46° W 00:59:22 35° SW
Cosmos 1953 2.7 00:59:03 10° N 01:02:56 58° ENE 01:05:20 21° SSE
USA 234 3.5 00:56:43 10° SSE 01:03:01 48° SW 01:09:20 10° WNW
SL-14 R/B 3.4 01:01:39 33° SW 01:03:13 62° WNW 01:07:03 10° N
SL-8 R/B 4.0 00:59:00 10° W 01:03:28 41° SSW 01:07:57 10° SE
Cosmos 1697 Rocket 4.0 00:59:35 10° NW 01:03:52 23° WSW 01:05:45 19° SW
Cosmos 1862 Rocket 3.5 01:04:13 30° SSW 01:06:17 78° WNW 01:10:38 10° N
Meteor 1-23 Rocket 4.5 01:03:41 24° SW 01:07:03 59° WNW 01:12:38 10° N
Aureole 3 2.6 01:09:15 45° SSW 01:10:01 71° WNW 01:13:01 10° N
Cosmos 1980 Rocket 2.8 01:06:03 10° NW 01:11:17 39° WSW 01:14:01 24° SSW
Nadezhda 1 Rocket 4.2 01:06:15 10° N 01:12:41 73° ENE 01:18:18 14° SSE
Cosmos 540 Rocket 3.8 01:09:06 10° NNW 01:14:06 50° WSW 01:16:52 25° S
Cosmos 1758 4.5 01:14:52 10° NNW 01:18:10 27° W 01:19:20 23° WSW
ADEOS II 4.0 01:15:06 10° NE 01:19:05 21° E 01:23:02 10° SE
Cosmos 1607 4.4 01:14:39 14° WSW 01:20:20 63° NW 01:26:49 10° NE
MOZ.5/SAFIR/RUBIN 5/SL-8 3.8 01:18:21 19° SSE 01:21:48 89° ENE 01:26:34 10° NNW
Cosmos 2369 4.2 01:17:04 10° NW 01:22:23 41° WSW 01:25:30 22° SSW
COSMOS 2406 3.2 01:19:32 23° SSW 01:23:14 86° ESE 01:29:03 10° NNE
Lacrosse 5 rocket 1.1 01:19:32 10° WNW 01:23:40 73° SSW 01:27:37 10° SE
Cosmos 1356 Rocket 3.5 01:22:17 28° SSW 01:24:18 62° WNW 01:28:25 10° N
IDEFIX/ARIANE 42P 3.4 01:19:24 10° NNE 01:24:25 43° E 01:28:28 15° SSE
Meteor 1-16 Rocket 4.4 01:24:25 10° NNW 01:29:58 58° W 01:33:51 20° S
Cosmos 1707 Rocket 4.4 01:28:29 21° SW 01:30:55 39° WNW 01:35:08 10° N
Okean 1-7 3.0 01:30:04 25° SSW 01:32:31 82° W 01:36:52 10° N
Okean 3 3.9 01:34:53 24° SW 01:37:02 47° WNW 01:41:02 10° N
Cosmos 1238 4.5 01:34:07 10° N 01:38:12 87° WSW 01:40:12 23° S
ATLAS 2AS CENTAUR R/B 3.6 01:31:49 10° NW 01:38:37 51° NNE 01:45:07 10° ESE
Cosmos 1315 Rocket 2.8 01:39:37 23° S 01:41:56 77° E 01:45:52 10° NNE
SL-16 R/B 2.1 01:36:17 10° NNW 01:41:59 80° WSW 01:47:39 10° SSE
CZ-2C R/B 4.4 01:37:24 10° NNE 01:42:50 39° E 01:48:09 10° SSE
SJ 16-02 3.2 01:40:03 10° SSE 01:43:25 23° E 01:46:48 10° NE
Helios 1A Rocket 3.9 01:43:06 22° SW 01:44:33 28° W 01:47:57 10° NW
Cosmos 1850 Rocket 4.4 01:46:14 17° S 01:50:10 57° ESE 01:55:21 10° NNE
Orbus 7S? 4.1 01:48:25 10° W 01:51:10 35° NNW 01:53:48 10° ENE
Cosmos 2082 Rocket 2.7 01:48:50 16° SW 01:53:21 55° NW 01:58:59 10° NNE
Cosmos 2219 Rocket 3.4 01:49:38 10° NNW 01:55:02 44° NE 02:00:26 10° ESE
Cosmos 1709 Rocket 4.2 01:49:42 14° S 01:55:17 73° E 02:01:39 10° NNE
Cosmos 1741 Rocket 4.4 01:51:18 17° S 01:55:17 59° ESE 02:00:28 10° NNE
Cosmos 1782 Rocket 3.5 01:51:34 10° NNW 01:55:59 79° W 01:59:38 14° S
Cosmos 1908 Rocket 4.1 01:52:25 10° NNW 01:56:39 43° W 01:59:24 19° SSW
SL-16 R/B 3.2 01:51:35 10° SE 01:57:42 59° ENE 02:03:51 10° NNW
CZ-2D R/B 2.6 01:52:23 10° NNE 01:57:50 60° ESE 02:02:42 13° S
Cosmos 2237 4.4 01:56:09 10° NW 02:01:44 53° WSW 02:07:16 10° S
Cosmos 1455 2.8 02:00:12 10° NNW 02:03:22 34° W 02:05:03 21° SW
Cosmos 2360 Rocket 2.3 01:58:21 10° NNW 02:04:04 81° ENE 02:09:45 10° SSE
Meteor 1-28 Rocket 4.0 02:01:09 10° SE 02:04:35 47° ENE 02:08:02 10° N
Cosmos 968 Rocket 4.0 02:02:10 14° S 02:06:25 53° ESE 02:11:25 10° NNE
Genesis I 4.5 02:05:37 14° S 02:07:54 26° ESE 02:10:56 10° ENE
USA 267 3.6 02:01:47 10° ENE 02:08:15 66° NNW 02:14:43 10° W
RESURS DK-1 2.9 02:04:12 10° NNW 02:08:15 60° NE 02:12:16 10° SE
MSX 3.9 02:05:04 10° NNE 02:10:51 83° ESE 02:16:00 13° SSW
Cosmos 841 Rocket 4.1 02:07:30 10° NW 02:12:17 37° WSW 02:16:19 14° SSW
Resurs 1-4 Rocket 2.2 02:07:02 10° NNE 02:12:20 79° ESE 02:17:04 13° SSW
H-2A R/B 3.4 02:12:43 10° N 02:16:43 69° WNW 02:19:49 16° SSW
FENGYUN 3A 4.1 02:16:23 10° NNE 02:21:44 60° ESE 02:27:01 10° S
COBE Rocket 4.1 02:18:36 10° N 02:23:23 61° WNW 02:27:39 14° SSW
Cosmos 2278 4.5 02:18:35 10° NW 02:23:39 33° WSW 02:28:37 10° SSW
Meteor 1-4 Rocket 3.6 02:25:17 14° WSW 02:27:02 23° WNW 02:29:31 10° NNW
SL-24 R/B 4.4 02:29:16 10° S 02:34:09 86° W 02:39:00 10° N
CZ-2C R/B 2.9 02:29:29 10° S 02:34:27 48° W 02:39:30 10° NNW
Cosmos 2242 Rocket 3.6 02:30:52 12° SSW 02:34:58 74° W 02:39:29 10° N
Cosmos 2333 Rocket 2.2 02:31:18 10° NW 02:37:00 68° WSW 02:42:41 10° SSE
Sich 1 Rocket 4.2 02:32:45 10° N 02:37:15 59° ENE 02:41:39 10° SSE
Cosmos 2098 Rocket 3.6 02:32:36 10° NNW 02:37:38 80° W 02:43:37 10° S
Timation 1 Rocket 4.4 02:32:20 12° SSW 02:37:52 86° ESE 02:43:53 10° NNE
Cosmos 1953 4.2 02:36:02 10° NW 02:38:19 15° W 02:40:27 11° WSW
Cosmos 1825 4.2 02:35:46 10° SE 02:38:29 22° E 02:41:12 10° NE
Cosmos 2151 Rocket 4.0 02:35:18 10° N 02:39:48 67° ENE 02:44:13 10° SSE
Cosmos 1814 Rocket 4.1 02:35:43 10° NNW 02:40:48 56° WSW 02:45:55 10° S
Cosmos 2322 Rocket 2.5 02:36:06 10° NW 02:41:30 47° WSW 02:46:52 10° S
Cosmos 2292 4.3 02:38:31 10° N 02:41:37 88° WSW 02:45:11 10° S
SL-27 R/B 2.1 02:40:26 12° SSW 02:42:58 64° ESE 02:45:45 10° NNE
Cosmos 1892 4.3 02:41:26 10° SSE 02:44:32 30° E 02:47:39 10° NNE
NPP 4.1 02:41:40 10° N 02:46:51 49° WNW 02:52:01 10° SW
Cosmos 1242 Rocket 2.9 02:44:54 13° SW 02:47:08 34° WNW 02:49:49 10° N
Meteor 2-5 Rocket 4.0 02:43:53 10° S 02:49:48 85° E 02:55:48 10° NNE
SL-4 R/B 4.1 02:48:13 10° S 02:51:14 18° SE 02:54:18 10° E
Okean 2 Rocket 3.2 02:48:16 10° N 02:52:42 81° E 02:57:06 10° SSE
Cosmos 1408 2.9 02:53:36 11° SW 02:56:13 35° WNW 02:59:01 10° N
Cosmos 2074 Rocket 4.2 02:50:55 10° S 02:57:07 75° E 03:03:19 10° NNE
Cosmos 1674 Rocket 4.1 02:54:11 10° S 02:58:34 63° E 03:02:57 10° NNE
Cosmos 1570 Rocket 4.1 02:53:21 10° NNW 02:58:41 85° WSW 03:04:01 10° SSE
ADEOS II 2.2 02:53:58 10° NNE 02:59:12 69° WNW 03:04:24 10° SSW
Lacrosse 5 rocket 2.8 02:58:54 10° W 03:01:22 16° SW 03:03:46 10° SSW
Cosmos 2208 Rocket 4.2 02:56:30 10° NNW 03:01:51 81° ENE 03:07:05 10° SSE
IDEFIX/ARIANE 42P 3.5 02:59:08 10° N 03:03:53 35° WNW 03:08:37 10° SW
ALOS 2.3 02:59:55 10° NNE 03:04:34 87° ESE 03:09:12 10° SSW
Cosmos 1833 4.3 02:58:56 10° SSW 03:04:36 80° ESE 03:10:17 10° NNE
Cosmos 405 Rocket 2.5 03:08:23 10° NNW 03:11:58 73° W 03:15:35 10° S
Cosmos 2184 Rocket 4.1 03:09:03 10° S 03:15:17 87° W 03:21:38 10° N
Cosmos 1378 Rocket 3.5 03:11:27 10° SSW 03:15:44 78° WNW 03:20:04 10° N
CZ-2C R/B 3.6 03:12:23 10° NNE 03:16:56 41° E 03:21:20 10° SSE
